Tracking 18628 objects as of 25-April-2017
HD Live streaming from Space Station
objects crossing your sky now

SL-8 R/B

Track SL-8 R/B now!
10-day predictions


NORAD ID: 22308
Int'l Code: 1993-001B
Perigee: 969.4 km
Apogee: 1,003.3 km
Inclination: 82.9 °
Period: 104.7 minutes
Semi major axis: 7357 km
RCS: 5.4041 m2 (large)
Launch date: January 12, 1993
Source: Commonwealth of Independent States (former USSR) (CIS)
Launch site: PLESETSK MISSILE AND SPACE COMPLEX (PKMTR)

Note: This is a ROCKET BODY
Your satellite tracking list
Your tracking list is empty





NASA's NSSDC Master Catalog

Two Line Element Set (TLE):
1 22308U 93001B   17114.87810275 +.00000040 +00000-0 +26235-4 0  9996
2 22308 082.9376 207.8217 0023034 355.1621 143.7381 13.75694660218706
Source of the keplerian elements: AFSPC